Temperature
20 18 17 17 18 19 19 19 18 17 16 15 14 13 13 13 13 13 12 12 12 12 13 13 14 14 15 15 16 16 16 17 17 18 18 18 19 19 19 19 19 18 18 18
17 17 18 18 18 17 18 17 17 16 16 15 13 13 13 13 13 12 12 11 11 12 13 13 14 14 14 15 15 16 16 16 16 17 17 18 18 18 19 19 18 18 18 18
17 17 18 17 16 17 17 17 17 16 15 14 13 13 12 12 12 12 12 11 11 11 11 12 13 13 13 14 14 15 15 15 16 16 16 17 17 18 18 18 19 18 18 18
17 17 17 16 16 16 16 16 16 16 14 13 13 13 12 11 11 12 12 11 11 11 11 12 12 12 13 13 14 14 14 14 15 15 16 16 16 16 17 18 18 18 18 18
17 17 16 16 16 16 15 15 15 15 13 12 11 12 11 10 11 11 11 11 11 11 11 11 11 12 12 13 13 13 13 14 14 14 15 15 15 16 16 17 17 17 18 18
16 17 16 16 16 15 14 14 13 11 11 11 11 11 11 10 10 11 11 11 11 11 11 11 11 11 12 12 12 13 13 13 13 14 14 15 15 15 15 16 17 17 17 17
16 15 15 16 14 14 12 12 13 13 11 11 12 11 11 11 11 11 11 11 11 11 11 11 11 11 12 12 12 12 13 13 13 13 14 14 14 15 15 15 16 16 16 16
15 14 15 15 14 14 13 12 12 13 12 11 11 11 11 12 12 11 11 11 11 11 11 11 11 11 11 12 12 12 12 12 13 13 13 13 14 14 14 15 15 15 15 15
14 14 16 15 14 14 13 11 11 10 11 11 11 11 12 12 11 11 11 11 11 11 11 11 11 11 11 11 12 12 12 12 12 13 13 13 13 13 14 14 14 14 14 15
14 14 15 15 15 13 12 11 10 10 11 11 11 11 10 10 10 10 10 10 11 12 12 12 11 11 11 11 11 12 12 12 12 12 13 13 13 13 13 14 14 14 14 14
14 13 14 14 13 13 12 11 9 9 9 10 10 10 11 10 10 10 10 11 11 12 12 12 12 12 12 11 11 11 11 12 12 12 12 13 13 13 13 13 13 13 13 13
12 11 12 14 14 14 13 11 10 10 9 9 9 10 11 10 11 11 11 12 12 12 12 12 12 12 12 11 11 11 11 12 12 12 12 12 13 13 13 13 13 13 13 13
13 12 12 13 13 13 12 12 10 9 8 9 10 11 11 11 12 12 12 13 13 13 13 13 12 12 12 12 11 11 11 11 12 12 12 12 12 12 12 13 13 13 13 13
13 11 12 14 13 13 13 12 11 10 9 10 10 11 11 11 11 12 13 13 13 13 13 13 13 12 12 12 11 11 11 11 11 11 12 12 12 12 12 12 12 12 13 13
12 12 13 13 14 14 13 12 11 11 10 10 11 11 11 11 11 12 13 13 14 14 13 13 13 13 12 12 11 11 11 11 11 11 12 11 12 12 12 12 12 12 12 12
12 13 14 14 14 14 13 13 12 11 11 11 11 11 11 12 13 13 14 14 14 14 14 13 13 13 13 12 12 11 11 11 11 11 11 11 11 11 11 11 11 12 12 12
11 12 12 12 13 13 13 13 12 12 11 11 11 11 12 12 13 14 14 14 14 14 14 14 13 13 13 12 12 12 11 11 11 11 11 11 11 11 11 11 11 11 11 11
11 11 10 11 13 14 13 13 13 12 12 11 11 11 13 13 14 14 14 14 14 14 14 14 14 13 13 13 12 12 12 11 11 11 11 11 11 10 10 11 11 11 11 11
11 11 10 10 12 12 13 13 12 12 13 12 12 13 14 14 14 14 15 14 14 14 14 14 14 14 13 13 12 12 12 12 11 11 11 11 10 10 10 10 10 10 10 10
11 10 10 11 14 14 15 13 14 13 13 14 14 14 14 13 11 12 15 14 14 14 14 14 14 14 14 13 13 12 12 12 11 11 11 11 11 10 10 10 10 10 10 10
13 11 11 11 13 12 14 14 14 12 13 15 15 15 14 14 13 15 15 15 14 14 14 14 14 14 14 13 13 13 12 12 12 11 11 11 11 10 10 10 10 10 10 10
12 12 11 10 12 13 13 13 13 13 16 16 16 16 15 15 15 15 15 15 15 14 14 14 14 14 14 13 13 13 13 12 12 11 11 11 11 10 10 10 10 10 10 10
11 12 10 11 13 15 15 16 17 17 17 17 16 16 16 15 15 15 15 15 15 15 15 15 14 14 14 14 13 13 13 12 12 11 11 11 10 10 10 10 10 10 10 10
11 11 10 10 11 14 16 16 17 17 17 17 17 16 16 16 15 15 15 15 15 15 15 15 15 14 14 14 13 13 13 12 12 11 11 11 10 10 10 10 10 10 9 9
13 10 11 12 12 14 16 17 17 17 17 17 17 16 16 16 15 15 15 15 15 15 15 15 15 14 14 14 14 13 13 12 12 11 11 11 10 10 10 10 10 9 9 9
12 11 12 14 16 15 18 18 17 17 17 17 17 16 16 16 16 16 15 15 15 15 15 15 15 15 14 14 14 13 13 13 12 12 11 11 11 10 10 10 10 9 9 9
Wind_Speed
8 9 7 7 6 3 3 4 4 4 4 8 11 11 10 11 14 15 14 13 13 13 11 11 11 11 10 10 10 10 10 10 8 5 3 3 4 5 6 6 8 11 11 11
8 8 6 6 6 7 6 5 3 3 5 6 9 9 7 9 11 11 12 13 14 15 16 15 14 12 11 10 10 10 10 10 8 6 5 4 4 5 5 6 7 10 11 11
9 4 5 6 8 7 5 4 0 1 4 5 5 3 6 5 6 11 12 11 12 14 15 15 15 13 12 11 10 10 10 10 8 8 6 5 4 3 3 5 6 7 10 11
8 5 5 6 6 6 2 2 3 3 4 2 2 1 5 7 8 14 15 14 15 15 14 14 14 14 13 12 10 9 9 9 8 7 6 6 4 5 5 4 5 6 7 8
5 3 7 7 5 4 3 4 1 2 5 4 7 3 4 7 9 14 14 14 14 14 14 14 13 13 12 11 10 9 9 9 8 7 7 6 5 5 4 3 4 5 5 5
5 3 4 3 3 3 3 3 6 6 5 5 5 3 5 6 10 14 14 14 14 14 14 14 13 12 11 10 9 9 9 8 8 7 7 7 7 6 5 4 3 3 3 3
7 7 7 5 7 8 9 6 5 6 6 2 3 3 2 5 8 10 13 14 14 13 14 14 15 14 13 12 11 10 9 9 9 8 8 7 7 6 4 3 2 2 1 2
4 5 7 7 4 3 5 5 5 2 1 2 4 3 3 4 7 9 10 11 12 13 13 14 15 14 12 12 11 10 10 9 9 8 8 7 7 5 4 3 2 1 0 0
5 1 3 4 5 3 4 4 3 6 3 2 3 3 3 5 10 11 13 14 14 14 14 14 15 14 12 12 11 10 9 9 9 8 8 8 8 7 6 6 4 3 3 2
6 4 4 4 6 7 5 4 5 4 3 1 3 3 5 10 12 12 13 14 15 15 14 14 13 13 12 11 10 9 9 9 8 8 8 7 8 7 6 6 7 6 5 5
4 5 4 5 5 6 6 5 5 5 4 3 1 3 3 6 8 10 12 12 13 14 13 12 12 11 10 10 10 10 10 9 9 9 8 8 8 8 7 7 7 6 6 6
4 5 2 2 1 1 4 3 3 4 2 3 2 4 5 6 7 8 10 12 12 12 11 10 10 10 10 10 10 10 10 10 9 9 9 9 9 9 8 8 7 6 6 6
5 5 3 5 5 5 5 4 4 5 4 3 2 4 4 5 7 7 8 10 10 11 10 9 9 9 10 10 10 10 10 10 10 9 9 10 10 10 9 9 8 8 7 7
5 5 4 3 3 1 2 2 2 4 4 3 3 4 6 8 8 9 10 10 10 9 8 8 8 8 8 8 9 9 10 10 9 9 10 10 10 9 9 9 10 9 9 8
5 5 3 2 2 3 1 1 2 3 5 5 4 4 7 7 7 8 8 9 9 9 8 8 8 7 7 8 8 8 9 9 9 9 10 9 9 9 9 10 10 10 10 10
4 5 3 2 1 2 0 2 2 3 3 3 2 5 7 6 5 6 7 8 8 9 8 8 8 7 7 7 7 7 8 8 8 9 9 9 9 9 9 9 9 9 9 9
3 5 4 1 1 4 5 7 7 5 5 6 6 6 4 4 5 6 7 8 8 9 8 7 7 6 5 5 5 6 6 6 8 8 8 8 8 8 8 8 9 9 8 8
6 5 4 2 2 4 7 4 7 6 6 8 6 6 5 6 6 6 6 6 8 8 7 7 6 5 4 3 3 4 5 6 7 8 8 8 8 8 8 8 8 8 7 7
4 7 5 4 2 7 6 5 7 7 6 8 9 7 5 2 3 5 4 4 5 5 5 5 4 3 3 3 3 4 5 6 7 7 7 7 7 7 8 8 7 6 6 7
6 5 6 4 2 5 7 5 7 5 5 8 10 9 5 4 1 4 5 5 6 6 5 4 4 3 3 2 2 4 4 5 6 5 5 6 7 7 7 7 7 6 6 6
2 3 4 5 5 8 6 7 9 5 8 6 10 9 8 7 6 5 6 5 5 5 5 5 4 3 3 2 2 3 3 3 3 4 5 6 6 6 6 6 6 6 6 7
8 6 6 5 4 8 6 10 10 11 3 7 10 9 9 8 5 5 4 3 5 6 6 5 5 4 4 2 2 2 2 1 3 5 6 7 7 6 6 6 7 7 7 7
8 9 7 9 9 5 9 9 8 7 7 8 9 8 9 7 5 3 1 2 4 4 5 4 4 4 4 3 2 1 1 2 4 5 6 6 6 6 6 7 7 7 7 7
5 4 5 6 9 7 9 6 5 8 8 8 9 9 9 7 6 4 2 1 2 3 4 4 4 5 5 4 3 1 1 4 5 5 4 4 5 5 6 5 5 6 6 6
7 8 5 7 7 4 7 11 9 8 7 8 8 8 9 9 6 5 3 2 2 2 3 3 3 3 4 4 4 3 2 5 5 4 3 3 3 3 3 4 4 4 4 5
7 9 9 9 8 8 8 11 11 11 10 11 10 8 7 8 7 6 4 3 2 2 2 2 3 3 3 4 4 3 1 4 5 3 3 2 2 1 1 2 3 3 3 7
Wind_Direction
30 53 39 7 17 71 94 95 81 60 80 77 87 78 49 35 34 28 19 11 6 358 351 351 351 347 344 345 347 343 345 343 344 338 318 278 249 238 236 229 216 207 204 205
52 39 1 14 32 55 72 79 53 52 82 99 105 82 49 40 35 23 13 1 355 350 348 348 348 346 344 343 343 340 339 335 337 328 309 281 270 253 237 230 219 212 205 203
89 12 9 56 43 48 59 95 321 219 77 88 124 74 21 7 17 11 9 357 351 349 341 339 340 339 338 338 338 336 331 327 328 327 316 304 283 272 249 230 222 219 212 203
79 21 40 57 44 34 346 331 279 219 130 72 358 182 7 334 351 1 358 353 347 344 339 337 336 336 334 331 330 328 325 323 325 328 326 316 299 279 267 257 238 226 215 203
76 31 42 39 10 6 300 328 5 113 123 76 23 65 341 338 351 347 345 345 343 340 338 337 335 330 328 326 328 327 325 323 325 328 326 318 306 289 284 273 248 237 218 201
57 25 48 1 352 25 345 58 60 54 72 56 344 38 358 349 334 331 335 338 339 339 339 338 336 331 329 328 330 332 331 328 331 333 335 332 324 312 300 284 258 237 210 194
30 12 1 13 12 11 36 64 40 23 33 8 336 64 345 318 326 327 329 332 334 338 339 340 341 340 339 336 335 336 338 337 338 342 345 342 338 330 312 298 283 260 215 194
81 6 355 14 29 347 33 83 118 140 167 306 8 18 289 303 320 329 335 334 337 342 341 341 341 340 339 338 340 345 346 343 345 351 351 353 353 352 352 356 356 358 7 166
126 131 328 30 31 57 56 59 127 121 110 61 355 337 317 336 345 346 345 344 342 342 341 341 341 342 343 344 346 347 349 354 355 357 358 3 5 10 16 19 25 33 44 69
124 117 342 341 35 36 88 108 76 86 109 42 349 348 321 325 334 338 338 337 336 337 337 338 338 339 345 347 348 354 1 2 0 4 6 11 12 17 23 32 36 39 43 55
99 110 6 29 37 352 20 48 75 85 104 125 8 307 262 286 307 320 322 325 327 331 332 333 337 341 349 357 1 5 7 8 10 10 10 16 19 22 29 35 35 40 45 52
104 107 73 349 335 87 94 77 115 119 92 108 141 276 280 282 296 306 312 318 322 325 326 331 339 348 356 0 2 7 10 11 11 11 18 22 24 28 32 34 34 39 44 47
122 100 74 358 353 11 49 49 88 109 107 111 135 281 297 317 317 312 311 316 320 323 328 335 345 352 356 359 3 6 8 9 9 14 22 26 26 30 31 31 32 35 42 46
106 83 125 148 223 244 38 39 101 109 120 149 216 268 305 318 320 320 321 319 319 324 331 340 343 347 353 358 3 6 9 11 15 20 25 27 26 29 34 34 35 38 42 44
91 91 84 89 111 117 106 90 110 123 159 166 215 248 270 282 291 300 306 316 327 333 339 342 342 343 352 359 2 5 9 10 15 24 26 23 23 29 35 37 38 40 44 45
72 110 96 50 67 95 124 183 137 141 162 182 227 267 258 270 285 300 312 320 325 327 333 337 341 344 353 357 359 3 6 6 16 26 23 19 24 29 31 32 36 40 40 39
86 116 112 220 339 3 281 217 192 197 200 180 206 238 264 281 291 296 306 312 312 316 324 331 334 331 333 344 355 1 0 9 24 26 22 20 24 30 27 31 35 34 31 34
121 103 111 119 75 273 251 209 175 184 216 205 221 244 242 246 270 282 279 291 307 317 324 326 326 327 327 342 6 11 19 24 30 29 25 21 24 28 26 31 31 26 26 31
124 128 117 124 210 280 280 189 170 177 242 210 210 235 243 258 348 318 293 296 292 304 309 305 306 306 318 347 12 29 25 26 34 31 27 23 27 31 31 31 25 19 25 30
73 95 113 132 199 252 253 193 152 114 269 218 189 206 201 127 57 279 296 317 320 328 331 331 332 340 349 349 28 39 24 28 32 32 32 32 35 37 33 29 25 21 26 26
123 82 130 165 228 262 240 147 124 152 244 201 179 187 178 183 207 242 299 318 334 339 345 353 359 359 336 333 45 36 25 26 39 57 50 40 36 42 37 34 28 24 25 27
176 169 187 163 207 259 182 147 179 211 202 166 174 180 183 205 231 255 283 326 351 357 355 359 3 356 348 3 46 25 10 53 91 76 62 49 38 39 39 40 34 28 25 28
193 189 185 190 213 232 185 194 201 169 170 178 176 181 180 191 214 223 239 338 345 353 353 354 4 2 2 7 33 7 323 129 109 88 73 61 52 44 38 43 38 31 28 29
240 169 173 242 258 232 218 229 198 182 182 179 173 170 170 180 192 192 197 294 327 339 349 355 13 17 360 351 3 345 174 137 121 108 92 74 63 50 40 40 39 38 29 24
218 170 195 248 265 258 230 209 198 186 174 160 165 172 176 176 182 184 194 235 282 320 334 357 12 4 348 350 1 14 118 133 126 124 117 98 81 69 47 40 34 30 20 17
192 178 180 219 215 192 223 200 179 170 177 173 168 174 180 179 182 180 192 214 238 295 329 354 2 359 349 357 2 11 117 146 142 142 149 150 141 113 51 19 3 5 17 27
Height
1531 1538 1548 1547 1544 1544 1545 1549 1553 1554 1554 1558 1564 1567 1567 1565 1562 1560 1558 1556 1552 1550 1547 1544 1541 1538 1535 1531 1528 1526 1524 1521 1520 1518 1518 1518 1518 1520 1521 1523 1525 1527 1528 1530
1543 1551 1549 1546 1546 1546 1549 1554 1556 1557 1556 1561 1567 1569 1569 1567 1566 1565 1562 1558 1554 1549 1545 1542 1538 1536 1533 1529 1526 1524 1521 1519 1517 1515 1514 1513 1513 1513 1515 1517 1518 1520 1522 1524
1551 1554 1550 1550 1552 1552 1554 1557 1557 1558 1560 1563 1567 1572 1571 1569 1567 1565 1562 1559 1555 1551 1546 1541 1537 1534 1531 1527 1524 1521 1519 1517 1514 1512 1510 1509 1508 1508 1509 1510 1512 1514 1516 1518
1552 1553 1553 1554 1555 1555 1559 1554 1555 1556 1564 1573 1570 1578 1576 1571 1568 1564 1561 1558 1554 1550 1545 1541 1537 1532 1529 1525 1522 1519 1517 1514 1511 1509 1507 1505 1504 1503 1503 1505 1506 1508 1511 1513
1556 1555 1555 1557 1557 1555 1556 1554 1555 1557 1565 1575 1577 1579 1581 1573 1571 1566 1562 1559 1555 1550 1545 1540 1536 1531 1527 1523 1520 1517 1514 1512 1509 1506 1504 1503 1501 1499 1499 1500 1501 1502 1505 1507
1556 1555 1556 1557 1555 1555 1555 1556 1558 1565 1571 1584 1584 1583 1584 1580 1576 1569 1564 1559 1555 1550 1545 1540 1535 1530 1525 1521 1518 1515 1512 1510 1507 1504 1502 1500 1498 1496 1495 1495 1496 1498 1500 1502
1562 1561 1558 1557 1558 1557 1560 1566 1576 1578 1587 1588 1582 1583 1585 1578 1575 1571 1566 1560 1555 1550 1545 1539 1534 1528 1524 1520 1516 1513 1510 1508 1505 1502 1500 1498 1496 1494 1493 1493 1493 1494 1496 1497
1568 1574 1564 1561 1563 1564 1566 1571 1582 1585 1589 1590 1584 1586 1584 1577 1574 1571 1566 1561 1556 1551 1546 1540 1534 1529 1524 1520 1516 1512 1509 1507 1504 1501 1499 1497 1495 1493 1492 1491 1492 1492 1493 1495
1570 1573 1564 1563 1563 1563 1567 1574 1574 1584 1586 1591 1589 1584 1579 1575 1573 1569 1566 1561 1556 1551 1546 1541 1535 1530 1525 1521 1517 1513 1510 1507 1504 1502 1499 1497 1495 1493 1492 1491 1491 1491 1492 1493
1563 1572 1568 1565 1564 1566 1569 1573 1580 1585 1590 1594 1590 1589 1589 1579 1575 1570 1566 1562 1557 1552 1548 1542 1537 1532 1527 1523 1518 1515 1511 1509 1506 1503 1501 1499 1497 1495 1494 1493 1492 1492 1492 1492
1561 1572 1573 1570 1572 1574 1573 1576 1582 1589 1590 1595 1597 1595 1582 1580 1576 1572 1568 1563 1559 1554 1549 1545 1540 1535 1530 1525 1521 1517 1514 1511 1508 1505 1503 1501 1499 1497 1496 1495 1494 1493 1493 1493
1563 1574 1579 1574 1570 1570 1572 1577 1581 1588 1594 1595 1597 1596 1578 1577 1574 1571 1568 1564 1560 1556 1552 1547 1543 1538 1533 1528 1524 1520 1517 1513 1511 1509 1506 1504 1502 1500 1499 1497 1496 1496 1495 1495
1563 1573 1583 1581 1580 1575 1575 1577 1580 1586 1592 1595 1596 1593 1576 1575 1573 1570 1568 1564 1561 1557 1553 1549 1545 1541 1536 1532 1529 1525 1521 1518 1515 1512 1510 1507 1505 1503 1502 1500 1499 1498 1498 1497
1561 1574 1580 1583 1582 1577 1577 1578 1580 1584 1592 1593 1590 1587 1579 1575 1573 1570 1568 1565 1562 1559 1555 1551 1547 1544 1540 1537 1533 1529 1526 1522 1519 1516 1513 1511 1509 1507 1505 1504 1502 1501 1500 1500
1561 1574 1575 1575 1573 1574 1576 1577 1579 1581 1585 1589 1585 1583 1579 1575 1573 1570 1568 1565 1562 1559 1556 1553 1549 1546 1543 1540 1536 1533 1530 1527 1524 1521 1517 1515 1513 1511 1509 1507 1506 1504 1503 1502
1564 1572 1574 1576 1574 1575 1577 1577 1577 1579 1581 1582 1582 1581 1574 1573 1572 1570 1568 1565 1563 1560 1557 1554 1551 1548 1545 1542 1539 1537 1534 1531 1528 1525 1522 1519 1517 1515 1512 1511 1509 1508 1506 1505
1568 1572 1580 1583 1577 1578 1580 1574 1575 1576 1576 1578 1580 1577 1572 1572 1570 1569 1568 1565 1563 1561 1558 1556 1553 1550 1548 1545 1542 1540 1537 1534 1531 1528 1525 1523 1521 1518 1516 1514 1513 1511 1509 1508
1568 1575 1583 1585 1583 1584 1575 1565 1567 1571 1571 1572 1572 1571 1570 1570 1569 1569 1567 1566 1563 1561 1559 1556 1554 1552 1549 1547 1545 1543 1540 1537 1534 1531 1529 1526 1524 1522 1520 1518 1516 1514 1512 1511
1564 1572 1583 1588 1586 1580 1568 1564 1565 1569 1569 1565 1567 1567 1568 1568 1568 1568 1567 1566 1564 1562 1560 1557 1555 1553 1551 1549 1547 1545 1543 1540 1537 1534 1532 1529 1527 1525 1523 1521 1519 1517 1515 1513
1566 1569 1580 1585 1580 1578 1564 1557 1559 1566 1568 1559 1561 1564 1566 1568 1571 1569 1566 1565 1564 1562 1560 1558 1556 1554 1552 1551 1549 1547 1545 1542 1540 1537 1535 1533 1530 1528 1526 1524 1522 1520 1518 1516
1569 1574 1578 1582 1580 1570 1555 1555 1560 1573 1565 1554 1557 1560 1563 1565 1567 1567 1566 1565 1563 1562 1560 1558 1557 1555 1553 1552 1550 1548 1547 1545 1543 1540 1538 1536 1534 1531 1529 1527 1525 1523 1521 1518
1566 1572 1577 1580 1579 1570 1551 1554 1557 1554 1550 1551 1554 1558 1561 1563 1564 1565 1565 1564 1563 1562 1560 1559 1557 1556 1554 1553 1551 1550 1548 1547 1545 1543 1541 1539 1537 1535 1533 1531 1528 1526 1524 1521
1558 1557 1560 1561 1556 1544 1544 1543 1545 1546 1548 1550 1553 1556 1559 1561 1563 1564 1564 1564 1563 1562 1561 1559 1558 1556 1555 1553 1552 1551 1550 1548 1547 1545 1544 1542 1540 1538 1536 1534 1532 1529 1527 1524
1549 1547 1550 1550 1542 1539 1539 1540 1542 1544 1546 1549 1552 1555 1558 1560 1562 1563 1563 1563 1563 1562 1561 1560 1559 1557 1556 1554 1553 1552 1551 1550 1549 1547 1546 1544 1543 1541 1539 1537 1535 1532 1530 1528
1539 1543 1545 1543 1535 1534 1533 1535 1539 1542 1545 1548 1551 1554 1556 1558 1560 1562 1562 1563 1562 1562 1561 1560 1559 1558 1556 1555 1554 1553 1552 1551 1550 1549 1548 1546 1545 1544 1542 1540 1538 1535 1533 1531
1530 1532 1536 1534 1526 1527 1526 1528 1534 1538 1542 1545 1549 1552 1554 1557 1559 1560 1561 1562 1562 1562 1561 1560 1559 1558 1557 1556 1555 1554 1553 1552 1551 1550 1549 1548 1547 1546 1544 1543 1541 1539 1536 1534